CW3330 Weather Reports


time (UTC)temp
C
wind
direction
speed
KPH
gust
KPH
rain 1hr
cm
rain 24hr
cm
rain mn
cm
humidity
%
barometer
mb
20200226011504 2 242 1.6 11.3 0.03 0.36 0.08 96 988.9
20200226011005 2 238 4.8 12.9 0.03 0.36 0.08 96 988.9
20200226010504 2 241 4.8 11.3 0.03 0.36 0.08 96 989.0
20200226010005 2 259 4.8 12.9 0.03 0.36 0.08 96 989.0
20200226005504 2 256 8.0 14.5 0.03 0.36 0.08 96 989.0
20200226005005 2 262 8.0 16.1 0.03 0.36 0.08 96 989.0
20200226004504 2 258 3.2 9.7 0.03 0.36 0.08 96 989.0
20200226004005 2 258 1.6 9.7 0.03 0.36 0.08 96 989.0
20200226003504 2 265 3.2 12.9 0.03 0.36 0.08 96 989.0
20200226003005 2 272 4.8 14.5 0.03 0.33 0.05 96 989.0
20200226002505 2 236 6.4 12.9 0.05 0.36 0.05 96 989.0
20200226002006 2 217 6.4 14.5 0.05 0.36 0.05 96 988.9
20200226001505 2 214 9.7 14.5 0.05 0.36 0.05 96 989.0
20200226001005 2 230 6.4 12.9 0.05 0.36 0.05 96 989.0
20200226000505 2 223 4.8 12.9 0.05 0.36 0.05 96 989.0
20200226000004 2 235 4.8 11.3 0.05 0.36 0.05 95 988.9
20200225235504 2 223 8.0 12.9 0.05 0.36 0.05 95 989.0
20200225235005 2 246 8.0 19.3 0.05 0.36 0.05 95 989.0
20200225234504 2 248 8.0 16.1 0.05 0.36 0.05 95 989.0
20200225234005 2 246 9.7 19.3 0.05 0.36 0.05 95 988.9
20200225233504 2 250 9.7 22.5 0.05 0.36 0.05 95 988.9
20200225233005 2 255 11.3 19.3 0.05 0.36 0.05 96 988.9
20200225232504 2 245 6.4 14.5 0.05 0.36 0.03 96 988.9
20200225232004 2 260 8.0 14.5 0.05 0.36 0.03 95 988.9
20200225231503 2 259 11.3 22.5 0.03 0.33 0.00 95 989.0
20200225231005 2 246 3.2 9.7 0.03 0.33 0.00 96 989.0
20200225230503 2 246 1.6 8.0 0.03 0.33 0.00 95 988.9
20200225230005 2 253 3.2 9.7 0.03 0.33 0.00 95 989.0
20200225225504 2 251 3.2 12.9 0.03 0.33 0.33 95 989.0
20200225225005 2 233 4.8 14.5 0.03 0.33 0.33 95 989.1
20200225224504 2 256 8.0 14.5 0.03 0.36 0.33 95 989.1
20200225224004 2 239 11.3 19.3 0.03 0.36 0.33 95 989.1
20200225223504 2 242 8.0 19.3 0.03 0.36 0.33 95 989.2
20200225223004 2 276 6.4 14.5 0.00 0.33 0.33 95 989.2
20200225222504 2 234 9.7 16.1 0.00 0.33 0.33 95 989.1
20200225222004 2 246 12.9 24.1 0.00 0.33 0.33 95 989.2
20200225221503 2 257 11.3 19.3 0.00 0.33 0.33 95 989.2
20200225221004 2 234 6.4 14.5 0.00 0.38 0.33 95 989.2
20200225220504 2 246 9.7 14.5 0.00 0.43 0.33 95 989.2
20200225220004 2 224 8.0 14.5 0.00 0.43 0.33 95 989.2
20200225215504 2 223 4.8 16.1 0.03 0.43 0.33 95 989.2
20200225215004 2 236 6.4 12.9 0.05 0.43 0.33 95 989.3
20200225214503 2 253 3.2 14.5 0.08 0.43 0.33 95 989.3
20200225214004 2 253 9.7 14.5 0.08 0.43 0.33 95 989.3
20200225213504 2 226 9.7 14.5 0.08 0.46 0.33 95 989.3
20200225213004 2 221 6.4 14.5 0.08 0.46 0.33 95 989.3
20200225212504 2 237 6.4 14.5 0.08 0.46 0.33 94 989.3
20200225212005 2 220 8.0 14.5 0.08 0.46 0.33 94 989.3
20200225211504 2 249 6.4 14.5 0.08 0.48 0.33 93 989.4
20200225211004 2 262 12.9 19.3 0.08 0.48 0.33 93 989.4
20200225210504 2 255 11.3 20.9 0.08 0.51 0.33 93 989.5
20200225210004 2 254 14.5 24.1 0.08 0.51 0.33 92 989.6
20200225205504 3 249 14.5 24.1 0.05 0.51 0.30 92 989.7
20200225205005 3 251 12.9 20.9 0.03 0.48 0.25 92 989.6
20200225204504 3 254 6.4 16.1 0.00 0.46 0.23 92 989.4
20200225204004 3 240 9.7 19.3 0.00 0.46 0.23 92 989.5
20200225203504 3 246 9.7 16.1 0.00 0.46 0.23 92 989.6
20200225203004 3 234 11.3 14.5 0.00 0.48 0.23 92 989.6
20200225202504 3 245 8.0 14.5 0.00 0.48 0.23 92 989.6
20200225202004 3 241 9.7 16.1 0.00 0.48 0.23 92 989.7
20200225201504 3 234 11.3 16.1 0.00 0.51 0.23 91 989.8
20200225201004 3 242 9.7 16.1 0.00 0.51 0.23 91 989.8
20200225200504 3 233 11.3 19.3 0.00 0.53 0.23 91 989.8
20200225200004 3 238 8.0 16.1 0.00 0.53 0.23 90 989.7
20200225195505 3 233 8.0 14.5 0.00 0.53 0.23 90 989.8
20200225195005 3 231 11.3 19.3 0.00 0.56 0.23 90 989.8
20200225194504 3 241 14.5 20.9 0.00 0.56 0.23 90 989.7
20200225194005 3 254 12.9 19.3 0.00 0.58 0.23 89 989.7
20200225193504 3 245 12.9 22.5 0.00 0.61 0.23 89 989.7
20200225193005 3 253 12.9 22.5 0.00 0.61 0.23 89 989.7
20200225192504 3 261 14.5 22.5 0.00 0.61 0.23 89 989.8
20200225192005 3 268 14.5 27.4 0.00 0.64 0.23 90 989.8
20200225191504 3 257 9.7 22.5 0.00 0.66 0.23 90 989.8
20200225191006 3 250 16.1 22.5 0.00 0.66 0.23 90 989.8
20200225190504 3 247 14.5 22.5 0.00 0.69 0.23 90 989.8
20200225190005 3 252 17.7 25.7 0.00 0.69 0.23 91 989.8
20200225185504 3 243 14.5 22.5 0.00 0.71 0.23 90 989.8
20200225185005 3 245 14.5 24.1 0.00 0.71 0.23 90 989.9
20200225184504 3 240 14.5 25.7 0.00 0.71 0.23 90 989.9
20200225184004 3 249 14.5 24.1 0.00 0.71 0.23 90 989.9
20200225183504 3 248 16.1 25.7 0.00 0.71 0.23 89 989.9
20200225183004 3 251 19.3 27.4 0.00 0.74 0.23 89 990.0
20200225182504 3 244 19.3 35.4 0.00 0.74 0.23 89 990.0
20200225182003 3 251 19.3 38.6 0.00 0.74 0.23 88 990.0
20200225181504 3 242 17.7 32.2 0.00 0.76 0.23 88 990.0
20200225181003 3 245 20.9 32.2 0.00 0.76 0.23 88 990.0
20200225180503 3 238 12.9 35.4 0.00 0.76 0.23 89 989.9
20200225180004 3 243 20.9 32.2 0.00 0.76 0.23 89 989.9
20200225175504 3 251 20.9 33.8 0.00 0.79 0.23 89 989.9
20200225175004 3 257 22.5 35.4 0.00 0.79 0.23 89 990.0
20200225174504 3 256 19.3 35.4 0.00 0.79 0.23 90 990.0
20200225174003 3 244 17.7 25.7 0.00 0.79 0.23 89 989.9
20200225173504 3 244 17.7 37.0 0.00 0.79 0.23 89 989.9
20200225173005 3 252 16.1 35.4 0.00 0.81 0.23 89 989.9
20200225172503 3 257 20.9 33.8 0.00 0.81 0.23 89 990.0
20200225172004 3 257 22.5 37.0 0.00 0.81 0.23 89 989.9
20200225171503 3 246 19.3 32.2 0.00 0.84 0.23 89 989.8
20200225171004 4 253 16.1 35.4 0.00 0.84 0.23 89 989.6
20200225170503 4 260 25.7 45.1 0.00 0.86 0.23 89 989.6
20200225170003 4 256 20.9 38.6 0.00 0.86 0.23 88 989.7
20200225165504 4 254 20.9 40.2 0.00 0.89 0.23 89 989.6
20200225165004 4 252 19.3 35.4 0.00 0.89 0.23 89 989.6
20200225164504 4 260 24.1 35.4 0.00 0.91 0.23 90 989.6
20200225164004 4 264 17.7 37.0 0.00 0.91 0.23 90 989.6
20200225163503 4 264 22.5 40.2 0.00 0.94 0.23 90 989.6
20200225163005 4 252 20.9 35.4 0.00 0.97 0.23 90 989.6
20200225162504 4 252 30.6 48.3 0.00 0.97 0.23 91 989.7
20200225162004 4 239 19.3 33.8 0.03 0.99 0.23 91 989.6
20200225161504 4 254 25.7 40.2 0.05 0.99 0.23 90 989.6
20200225161005 5 253 29.0 41.8 0.05 0.99 0.23 90 989.5
20200225160504 5 267 20.9 40.2 0.05 1.02 0.23 90 989.5
20200225160005 5 254 20.9 41.8 0.05 1.02 0.23 89 989.4
20200225155503 5 249 27.4 38.6 0.05 1.04 0.23 90 989.3
20200225155004 5 253 22.5 41.8 0.05 1.04 0.23 90 989.2
20200225154504 5 272 19.3 41.8 0.05 1.07 0.23 90 989.2
20200225154004 5 264 27.4 41.8 0.05 1.07 0.23 90 989.1
20200225153504 5 252 25.7 41.8 0.05 1.09 0.23 90 989.1
20200225153004 4 257 20.9 38.6 0.05 1.09 0.23 90 989.1
20200225152503 4 273 25.7 70.8 0.05 1.09 0.23 89 989.2
20200225152004 5 264 25.7 56.3 0.05 1.09 0.23 88 989.3
20200225151504 5 283 25.7 56.3 0.05 1.09 0.20 85 989.2
20200225151004 6 257 32.2 53.1 0.03 1.09 0.18 82 989.0
20200225150504 6 257 30.6 53.1 0.03 1.09 0.18 81 989.0
20200225150005 6 255 22.5 59.5 0.03 1.09 0.18 82 988.9
20200225145504 6 242 32.2 56.3 0.03 1.09 0.18 82 988.8
20200225145004 6 251 30.6 51.5 0.03 1.12 0.18 84 988.7
20200225144505 6 255 19.3 38.6 0.03 1.12 0.18 85 988.8
20200225144004 6 278 24.1 46.7 0.03 1.14 0.18 85 988.7
20200225143504 6 263 29.0 46.7 0.03 1.17 0.18 84 988.7
20200225143004 6 275 32.2 51.5 0.03 1.19 0.18 85 988.8
20200225142503 6 249 35.4 57.9 0.03 1.19 0.18 84 988.8
20200225142004 6 251 20.9 49.9 0.00 1.17 0.15 82 988.6
20200225141502 6 256 41.8 56.3 0.00 1.19 0.15 78 988.7
20200225141003 6 257 35.4 51.5 0.00 1.19 0.15 81 988.8
20200225140503 6 255 33.8 41.8 0.00 1.19 0.15 81 988.7
20200225140003 6 252 27.4 41.8 0.00 1.19 0.15 81 988.7
20200225135503 6 278 29.0 56.3 0.00 1.19 0.15 82 988.7
20200225135004 6 250 38.6 62.8 0.00 1.19 0.15 83 988.7
20200225134504 6 255 25.7 53.1 0.00 1.19 0.15 84 988.7
20200225134003 6 287 22.5 59.5 0.00 1.19 0.15 83 988.7
20200225133503 6 266 30.6 61.2 0.00 1.19 0.15 83 988.6
20200225133004 5 246 32.2 64.4 0.00 1.19 0.15 86 988.6
20200225132503 5 249 29.0 48.3 0.00 1.19 0.15 86 988.6
20200225132004 6 274 29.0 46.7 0.00 1.19 0.15 83 988.7
20200225131503 6 264 32.2 56.3 0.00 1.19 0.15 79 988.5
20200225131004 6 250 27.4 51.5 0.00 1.19 0.15 79 988.6
20200225130503 6 255 38.6 59.5 0.00 1.19 0.15 78 988.5
20200225130004 6 247 27.4 70.8 0.00 1.19 0.15 79 988.4
20200225125503 6 244 40.2 66.0 0.00 1.19 0.15 79 988.4
20200225125004 6 248 33.8 66.0 0.00 1.19 0.15 78 988.4
20200225124503 6 252 38.6 61.2 0.00 1.19 0.15 80 988.6
20200225124003 6 266 37.0 62.8 0.00 1.19 0.15 81 988.6
20200225123504 6 257 45.1 70.8 0.00 1.19 0.15 81 988.5
20200225123004 6 252 29.0 51.5 0.00 1.19 0.15 81 988.6
20200225122504 6 232 33.8 57.9 0.00 1.19 0.15 81 988.6
20200225122004 6 236 35.4 61.2 0.00 1.19 0.15 81 988.6
20200225121503 6 232 32.2 61.2 0.00 1.19 0.15 82 988.7
20200225121003 6 243 29.0 70.8 0.00 1.19 0.15 84 988.6
20200225120503 6 246 32.2 57.9 0.00 1.19 0.15 85 988.6
20200225120004 5 239 27.4 53.1 0.00 1.19 0.15 86 988.5
20200225115504 5 228 35.4 57.9 0.00 1.19 0.15 86 988.5
20200225115004 6 220 30.6 48.3 0.03 1.19 0.15 85 988.7
20200225114504 6 229 32.2 59.5 0.03 1.19 0.15 85 988.8
20200225114003 6 225 30.6 57.9 0.05 1.19 0.15 87 988.8
20200225113504 5 237 32.2 48.3 0.05 1.19 0.15 86 988.8
20200225113005 6 237 32.2 57.9 0.05 1.19 0.15 87 988.8
20200225112503 5 244 27.4 46.7 0.05 1.19 0.15 90 988.9
20200225112004 5 244 24.1 51.5 0.05 1.19 0.15 90 989.0
20200225111503 5 228 29.0 46.7 0.05 1.19 0.15 89 989.1
20200225111004 5 245 33.8 53.1 0.05 1.19 0.15 88 989.2
20200225110503 5 247 35.4 56.3 0.05 1.19 0.15 88 988.9
20200225110004 5 263 30.6 62.8 0.05 1.19 0.15 88 989.3
20200225105504 5 234 38.6 78.9 0.05 1.19 0.15 88 989.1
20200225105003 5 217 35.4 59.5 0.03 1.17 0.15 87 988.8
20200225104504 6 227 38.6 59.5 0.03 1.17 0.15 84 988.8
20200225104004 6 219 32.2 70.8 0.00 1.17 0.13 83 988.8
20200225103504 6 231 32.2 48.3 0.00 1.17 0.13 83 988.8
20200225103004 6 225 30.6 62.8 0.00 1.17 0.13 83 989.0
20200225102504 6 242 38.6 62.8 0.00 1.17 0.13 83 989.0
20200225102005 6 242 32.2 51.5 0.00 1.17 0.13 83 989.0
20200225101503 6 224 30.6 51.5 0.00 1.17 0.13 83 989.0
20200225101003 6 227 25.7 41.8 0.00 1.17 0.13 84 989.1
20200225100504 6 223 27.4 57.9 0.00 1.17 0.13 84 989.2
20200225100005 6 233 27.4 46.7 0.00 1.17 0.13 84 989.2
20200225095504 6 222 29.0 51.5 0.03 1.17 0.13 85 989.3
20200225095004 5 216 25.7 46.7 0.05 1.17 0.13 85 989.4
20200225094504 5 217 30.6 46.7 0.05 1.17 0.13 86 989.5
20200225094004 5 232 27.4 51.5 0.05 1.17 0.13 87 989.5
20200225093503 5 239 32.2 49.9 0.05 1.17 0.13 87 989.7
20200225093004 5 241 29.0 62.8 0.05 1.17 0.13 88 989.7
20200225092504 5 227 29.0 51.5 0.05 1.17 0.13 89 989.8
20200225092004 5 239 24.1 51.5 0.05 1.17 0.13 90 989.8
20200225091504 5 234 30.6 59.5 0.05 1.17 0.13 90 989.9
20200225091004 5 226 27.4 41.8 0.05 1.17 0.13 90 990.0
20200225090503 5 231 22.5 40.2 0.05 1.17 0.13 90 990.0
20200225090005 5 248 27.4 41.8 0.05 1.17 0.13 88 990.1
20200225085504 5 228 35.4 49.9 0.03 1.14 0.10 86 990.3
20200225085004 6 239 27.4 46.7 0.00 1.12 0.08 85 990.1
20200225084505 6 237 27.4 49.9 0.00 1.12 0.08 85 990.0
20200225084004 5 227 27.4 46.7 0.00 1.12 0.08 86 990.2
20200225083503 5 242 22.5 38.6 0.00 1.12 0.08 86 990.3
20200225083005 5 241 25.7 41.8 0.00 1.12 0.08 85 990.3
20200225082504 5 235 22.5 46.7 0.00 1.12 0.08 84 990.4
20200225082005 6 233 22.5 41.8 0.00 1.12 0.08 83 990.3
20200225081503 6 228 29.0 41.8 0.00 1.12 0.08 82 990.5
20200225081004 6 238 29.0 45.1 0.00 1.12 0.08 81 990.7
20200225080504 5 244 24.1 40.2 0.00 1.12 0.08 81 990.7
20200225080005 5 241 16.1 35.4 0.00 1.12 0.08 82 990.9
20200225075504 5 244 22.5 51.5 0.00 1.12 0.08 82 990.9
20200225075004 5 261 27.4 46.7 0.00 1.12 0.08 82 991.0
20200225074505 5 239 25.7 40.2 0.00 1.12 0.08 83 991.0
20200225074004 5 235 24.1 41.8 0.00 1.12 0.08 83 991.1
20200225073505 5 237 25.7 45.1 0.00 1.12 0.08 83 990.9
20200225073005 5 225 25.7 46.7 0.00 1.12 0.08 83 991.0
20200225072503 5 223 30.6 46.7 0.00 1.12 0.08 83 991.1
20200225072003 5 232 27.4 51.5 0.03 1.12 0.08 84 991.2
20200225071503 5 233 22.5 38.6 0.03 1.12 0.08 84 991.2
20200225071003 5 232 22.5 41.8 0.03 1.12 0.08 83 991.3
20200225070503 5 242 20.9 38.6 0.03 1.12 0.08 83 991.2
20200225070003 5 234 22.5 35.4 0.03 1.12 0.08 83 991.3
20200225065503 5 238 22.5 41.8 0.03 1.12 0.08 84 991.3
20200225065003 5 233 22.5 41.8 0.03 1.12 0.08 86 991.2
20200225064503 5 245 20.9 41.8 0.03 1.12 0.08 87 991.3
20200225064003 5 243 17.7 37.0 0.03 1.12 0.08 86 991.2
20200225063503 5 251 25.7 48.3 0.03 1.12 0.08 86 991.2
20200225063004 5 253 25.7 40.2 0.03 1.12 0.08 86 991.3
20200225062503 5 259 24.1 40.2 0.03 1.12 0.08 84 991.4
20200225062004 5 250 20.9 46.7 0.00 1.09 0.05 81 991.5
20200225061503 5 246 29.0 45.1 0.00 1.09 0.05 80 991.5
20200225061003 5 238 25.7 40.2 0.00 1.09 0.05 79 991.4
20200225060503 5 248 25.7 45.1 0.00 1.09 0.05 79 991.5
20200225060003 5 246 27.4 45.1 0.00 1.09 0.05 79 991.4
20200225055503 5 247 27.4 53.1 0.00 1.09 0.05 79 991.4
20200225055004 5 248 24.1 48.3 0.00 1.09 0.05 80 991.5
20200225054503 5 253 25.7 48.3 0.00 1.09 0.05 82 991.5
20200225054003 5 239 25.7 46.7 0.00 1.09 0.05 83 991.5
20200225053503 5 249 24.1 40.2 0.00 1.09 0.05 83 991.5
20200225053004 5 230 22.5 51.5 0.00 1.09 0.05 83 991.6
20200225052503 5 222 20.9 45.1 0.00 1.09 0.05 83 991.8
20200225052004 5 254 19.3 33.8 0.00 1.09 0.05 83 991.6
20200225051003 5 262 20.9 40.2 0.00 1.09 0.05 83 991.8
20200225050503 5 260 22.5 40.2 0.00 1.09 0.05 82 991.9
20200225050004 5 258 14.5 25.7 0.00 1.09 0.05 81 991.8
20200225045503 5 264 14.5 37.0 0.00 1.09 0.05 81 991.9
20200225045004 5 256 17.7 33.8 0.00 1.09 0.05 80 991.9
20200225044504 5 257 17.7 38.6 0.00 1.09 0.05 80 991.8
20200225044004 5 257 19.3 32.2 0.00 1.09 0.05 80 991.8
20200225043504 5 246 22.5 40.2 0.00 1.09 0.05 80 992.0
20200225043005 5 260 27.4 46.7 0.00 1.09 0.05 81 992.0
20200225042504 5 257 25.7 37.0 0.00 1.09 0.05 81 992.0
20200225042004 5 259 25.7 45.1 0.00 1.09 0.05 81 992.0
20200225041504 5 249 29.0 48.3 0.00 1.09 0.05 82 992.1
20200225041004 5 251 25.7 41.8 0.00 1.09 0.05 84 991.9
20200225040503 5 251 27.4 40.2 0.00 1.09 0.05 84 991.9
20200225040004 5 243 25.7 49.9 0.00 1.09 0.05 84 991.9
20200225035504 6 258 29.0 53.1 0.00 1.09 0.05 85 991.9
20200225035004 6 247 32.2 49.9 0.00 1.09 0.05 84 992.1
20200225034504 6 244 17.7 38.6 0.00 1.09 0.05 84 992.0
20200225034004 6 254 20.9 37.0 0.00 1.09 0.05 83 991.9
20200225033503 6 242 20.9 46.7 0.00 1.09 0.05 84 991.9
20200225033003 6 244 22.5 38.6 0.00 1.09 0.05 83 991.9
20200225032503 6 238 22.5 40.2 0.00 1.09 0.05 84 991.8
20200225032004 6 252 25.7 41.8 0.00 1.09 0.05 83 991.8
20200225031503 6 269 27.4 46.7 0.00 1.09 0.05 83 991.9
20200225031004 6 255 33.8 48.3 0.00 1.09 0.05 83 991.9
20200225030504 6 257 22.5 41.8 0.00 1.09 0.05 83 991.9
20200225030004 6 253 27.4 48.3 0.00 1.09 0.05 83 991.7
20200225025504 6 231 20.9 41.8 0.00 1.09 0.05 84 991.8
20200225025004 6 241 22.5 49.9 0.00 1.09 0.05 84 991.8
20200225024503 6 240 22.5 41.8 0.00 1.09 0.05 85 991.9
20200225024004 6 243 27.4 45.1 0.00 1.09 0.05 86 991.9
20200225023504 6 251 19.3 33.8 0.00 1.09 0.05 86 992.0
20200225023004 6 236 19.3 35.4 0.00 1.09 0.05 86 992.1
20200225022504 6 239 24.1 38.6 0.00 1.09 0.05 87 992.1
20200225022004 6 238 19.3 41.8 0.00 1.09 0.05 87 992.1
20200225021504 6 245 20.9 35.4 0.00 1.09 0.05 88 992.0
20200225021004 6 235 17.7 35.4 0.00 1.09 0.05 88 992.1
20200225020504 6 259 22.5 37.0 0.00 1.09 0.05 89 992.2
20200225020004 6 237 20.9 35.4 0.00 1.09 0.05 89 992.3
20200225015504 6 245 22.5 41.8 0.00 1.09 0.05 90 992.3
20200225015004 6 247 19.3 37.0 0.00 1.09 0.05 90 992.3
20200225014504 6 248 16.1 35.4 0.00 1.09 0.05 90 992.3
20200225014005 6 254 16.1 33.8 0.00 1.09 0.05 90 992.4
20200225013504 6 246 17.7 35.4 0.00 1.09 0.05 90 992.4
20200225013004 6 260 19.3 33.8 0.00 1.09 0.05 89 992.4
20200225012504 6 269 19.3 35.4 0.03 1.09 0.05 89 992.4
20200225012005 6 258 22.5 38.6 0.03 1.09 0.05 89 992.3